[[{"header":{"parameterUnit":"m.s-1","parameterCategory":2,"la1":30.2991,"la2":30.254,"lo1":-89.0895,"lo2":-89.0444,"dy":0.0017,"dx":0.0017,"nx":28,"ny":28,"refTime":"2023-09-28T21:00:00:Z","depth":"0","parameterNumber":2,"parameterNumberName":"U-component_of_CURRENTS"},"data":[0,0,0,0,0,0,0,0,0,0,0,0,0,0,0,0,0,0,0,0,0,0,0,0,0,0,0,0,0,0,0,0,0,0,0,0,0,0,0,0,0,0,0,0,0,0,0,0,0,0,0,0,0,0,0,0,0,0,-0.1663,-0.1662,0,-0.1562,-0.156,-0.1559,-0.148,-0.1479,-0.1479,-0.1478,-0.1375,-0.1373,-0.1371,0,0,0,0,0,0,0,0,0,0,0,0,0,-0.1743,-0.1742,-0.1663,-0.1662,-0.1661,-0.1562,-0.156,-0.1559,-0.148,-0.1479,-0.1479,-0.1478,-0.1376,-0.1373,-0.1371,0,0,0,0,0,0,0,0,0,0,0,0,0,-0.168,-0.1742,-0.1664,-0.1611,-0.1606,-0.1562,-0.156,-0.1558,-0.148,-0.1479,-0.1478,-0.1478,-0.1377,-0.1374,-0.137,-0.1367,0,0,-0.136,-0.1359,0,0,0,0,0,0,0,0,-0.1684,-0.1677,-0.162,-0.1615,-0.1609,-0.1534,-0.1551,-0.1495,-0.148,-0.1526,-0.1478,-0.1477,-0.143,-0.1422,-0.1402,-0.1362,-0.1358,-0.136,-0.1358,-0.1357,-0.1356,0,0,0,0,0,0,0,-0.1688,-0.1681,-0.1621,-0.1619,-0.1612,-0.1577,-0.1568,-0.1539,-0.1483,-0.1522,-0.1516,-0.1508,-0.1427,-0.1406,-0.1399,-0.1356,-0.136,-0.1357,-0.1355,-0.1354,-0.1275,-0.1275,0,0,0,0,0,0,-0.1708,-0.1685,-0.1624,-0.1618,-0.1647,-0.1577,-0.1566,-0.1557,-0.1483,-0.1471,-0.1509,-0.1505,-0.1412,-0.1403,-0.1396,-0.1392,-0.1357,-0.1353,-0.1352,-0.1275,-0.1275,-0.1275,0,0,0,0,0,0,-0.171,-0.1704,-0.1628,-0.1651,-0.1639,-0.1577,-0.1568,-0.1556,-0.1534,-0.1474,-0.1461,-0.15,-0.1411,-0.14,-0.1365,-0.1387,-0.1352,-0.1349,-0.1275,-0.1275,-0.1275,-0.1382,0,0,0,0,0,0,-0.1713,-0.1705,-0.1707,-0.1652,-0.1639,-0.1616,-0.1568,-0.1555,-0.1532,-0.1525,-0.1462,-0.1451,-0.1409,-0.137,-0.1362,-0.1382,-0.1346,-0.1275,-0.1275,-0.1275,-0.1378,-0.1385,-0.1391,0,0,0,0,0,-0.1716,-0.1718,-0.1707,-0.17,-0.1643,-0.1617,-0.1607,-0.1558,-0.1533,-0.1533,-0.1479,-0.1453,-0.1362,-0.1367,-0.1357,-0.1377,-0.1276,-0.1275,-0.1275,-0.1375,-0.1384,-0.1391,0,0,0,0,0,0,-0.1746,-0.1709,-0.1696,-0.1685,-0.1663,-0.1604,-0.1596,-0.1567,-0.1524,-0.1514,-0.1453,-0.1439,-0.1418,-0.1377,-0.1384,-0.135,-0.1315,-0.1312,-0.1394,-0.1402,-0.1408,-0.1428,-0.1344,0,0,0,0,0,-0.1759,-0.1752,-0.1717,-0.1709,-0.1703,-0.1654,-0.1637,-0.1608,-0.1563,-0.1543,-0.1497,-0.1445,-0.141,-0.1389,-0.135,-0.1335,-0.1319,-0.1338,-0.1344,-0.135,-0.1357,-0.1352,-0.136,-0.1274,-0.1274,-0.1274,0,0,-0.1765,-0.1747,-0.174,-0.1716,-0.1691,-0.1691,-0.1641,-0.1623,-0.1617,-0.1541,-0.1515,-0.147,-0.1409,-0.1389,-0.1376,-0.1359,-0.1367,-0.135,-0.1356,-0.1359,-0.1353,-0.1361,-0.1369,-0.1274,-0.1274,-0.1274,0,0,-0.1781,-0.1765,-0.177,-0.1763,-0.1742,-0.1717,-0.172,-0.1674,-0.1649,-0.162,-0.1566,-0.1536,-0.147,-0.144,-0.1414,-0.1432,-0.1404,-0.1415,-0.1465,-0.1461,-0.1469,-0.1475,-0.1482,-0.1489,-0.1416,-0.1417,-0.1417,0,-0.1788,-0.1798,-0.1768,-0.178,-0.178,-0.1738,-0.1752,-0.1725,-0.1671,-0.1662,-0.1623,-0.155,-0.1497,-0.1489,-0.1481,-0.1452,-0.1443,-0.1448,-0.1473,-0.1479,-0.1484,-0.1489,-0.1495,-0.1422,-0.1421,-0.1421,-0.142,0,-0.1815,-0.1828,-0.1834,-0.1838,-0.1834,-0.1841,-0.1813,-0.1804,-0.1768,-0.1739,-0.1718,-0.1647,-0.1603,-0.1584,-0.1529,-0.1542,-0.1524,-0.1489,-0.1466,-0.15,-0.1502,-0.1507,-0.1429,-0.1427,-0.1426,-0.1424,0,0,-0.1801,-0.1846,-0.1848,-0.1881,-0.1871,-0.1877,-0.1876,-0.1873,-0.1872,-0.183,-0.1824,-0.1766,-0.173,-0.1697,-0.1642,-0.1628,-0.1648,-0.1571,-0.1568,-0.1599,-0.165,-0.157,-0.1567,-0.1621,-0.1622,-0.1622,-0.1644,0,-0.1829,-0.1896,-0.1892,-0.1946,-0.1981,-0.1959,-0.1963,-0.1954,-0.1916,-0.1898,-0.1855,-0.1822,-0.1774,-0.1744,-0.1731,-0.165,-0.1661,-0.1646,-0.1592,-0.1591,-0.1533,-0.1569,-0.1406,-0.1406,-0.1648,-0.1649,-0.1649,0,-0.1846,-0.19,-0.1969,-0.203,-0.2039,-0.2053,-0.2065,-0.206,-0.2028,-0.1995,-0.1974,-0.192,-0.1892,-0.1832,-0.1784,-0.1775,-0.1728,-0.1681,-0.168,-0.157,-0.1518,-0.1403,-0.1403,-0.1341,-0.1655,-0.1655,-0.1654,0,-0.187,-0.1945,-0.2015,-0.2035,-0.2088,-0.2104,-0.2115,-0.2092,-0.2078,-0.2051,-0.2029,-0.2004,-0.1954,-0.192,-0.1804,-0.1798,-0.1739,-0.1721,-0.1631,-0.1626,-0.1457,-0.1434,-0.1403,-0.1719,-0.1719,-0.1719,-0.1719,0,-0.1898,-0.1949,-0.204,-0.2079,-0.2127,-0.2154,-0.2164,-0.2156,-0.2139,-0.2101,-0.2081,-0.2032,-0.1965,-0.1905,-0.184,-0.1735,-0.1778,-0.1652,-0.1626,-0.1488,-0.1469,-0.1379,-0.138,-0.172,-0.172,-0.172,-0.172,0,-0.1885,-0.1956,-0.2023,-0.2112,-0.2133,-0.2154,-0.2171,-0.2157,-0.2172,-0.2115,-0.2108,-0.2051,-0.196,-0.1903,-0.1808,-0.1754,-0.1619,-0.1641,-0.1486,-0.1442,-0.1302,-0.1315,-0.1284,-0.1271,-0.1568,-0.1566,-0.1565,0,-0.1891,-0.1938,-0.2022,-0.2012,-0.2037,-0.2081,-0.2071,-0.2133,-0.2109,-0.2096,-0.2052,-0.1992,-0.185,-0.1729,-0.1624,-0.1534,-0.1532,-0.1381,-0.1341,-0.1281,-0.1277,-0.1306,-0.1302,-0.1172,-0.1167,-0.1163,-0.116,0,-0.1862,-0.1878,-0.1891,-0.1898,-0.1901,-0.192,-0.1936,-0.1942,-0.1976,-0.1942,-0.1831,-0.1734,-0.1624,-0.1408,-0.1342,-0.1287,-0.13,-0.1301,-0.1265,-0.0991,-0.0992,-0.0969,-0.1196,-0.1126,-0.113,-0.1132,-0.1134,-0.1135,-0.1764,-0.1742,-0.1734,-0.1712,-0.171,-0.1687,-0.165,-0.1664,-0.1616,-0.1505,-0.1545,-0.1327,-0.1206,-0.1049,-0.1028,-0.0914,-0.105,-0.0856,-0.089,-0.0938,-0.0878,-0.1043,-0.0923,-0.0925,-0.0927,-0.0929,-0.093,0,-0.1619,-0.1584,-0.1547,-0.1496,-0.1422,-0.1497,-0.1482,-0.141,-0.1283,-0.1198,-0.1064,-0.0798,-0.0632,-0.0603,-0.0504,-0.0475,-0.052,-0.0497,-0.0486,-0.0515,-0.065,-0.0581,-0.0345,-0.0345,-0.0345,-0.0346,-0.0346,-0.0346,-0.1515,-0.1416,-0.14,-0.1215,-0.1178,-0.1079,-0.104,-0.0947,-0.0867,-0.06,-0.0418,-0.0321,-0.0271,-0.0191,-0.0142,-0.0168,-0.0226,-0.0201,-0.0334,-0.0379,-0.0415,-0.045,-0.0383,-0.011,-0.011,-0.0126,-0.0126,-0.0126]},{"header":{"parameterUnit":"m.s-1","parameterCategory":2,"la1":30.2991,"la2":30.254,"lo1":-89.0895,"lo2":-89.0444,"dy":0.0017,"dx":0.0017,"nx":28,"ny":28,"refTime":"2023-09-28T21:00:00:Z","depth":"0","parameterNumber":3,"parameterNumberName":"V-component_of_CURRENTS"},"data":[0,0,0,0,0,0,0,0,0,0,0,0,0,0,0,0,0,0,0,0,0,0,0,0,0,0,0,0,0,0,0,0,0,0,0,0,0,0,0,0,0,0,0,0,0,0,0,0,0,0,0,0,0,0,0,0,0,0,-0.0135,-0.0135,0,-0.0108,-0.0108,-0.0108,-0.01,-0.01,-0.0101,-0.0101,-0.0017,-0.0014,-0.0012,0,0,0,0,0,0,0,0,0,0,0,0,0,-0.0135,-0.0135,-0.0135,-0.0135,-0.0135,-0.0108,-0.0108,-0.0107,-0.01,-0.01,-0.0101,-0.0101,-0.0018,-0.0015,-0.0012,0,0,0,0,0,0,0,0,0,0,0,0,0,-0.0123,-0.0135,-0.0135,-0.0129,-0.0128,-0.0109,-0.0108,-0.0107,-0.01,-0.01,-0.0101,-0.0101,-0.0019,-0.0015,-0.0011,0.002,0,0,0.0,0.0002,0,0,0,0,0,0,0,0,-0.0124,-0.0123,-0.013,-0.0129,-0.0129,-0.0109,-0.0077,-0.0062,-0.01,-0.0109,-0.0101,-0.0101,-0.0043,-0.0037,-0.003,0.0024,0.0028,0.0001,0.0003,0.0004,0.0006,0,0,0,0,0,0,0,-0.0125,-0.0124,-0.0123,-0.013,-0.0129,-0.0112,-0.0111,-0.0074,-0.0072,-0.0108,-0.0108,-0.0107,-0.0042,-0.0034,-0.0028,0.0029,0.0,0.0004,0.0006,0.0008,0.0102,0.0102,0,0,0,0,0,0,-0.0133,-0.0125,-0.0124,-0.0122,-0.0129,-0.0112,-0.0111,-0.0114,-0.0074,-0.0069,-0.0107,-0.0107,-0.004,-0.0032,-0.0025,0.0005,0.0004,0.0008,0.001,0.0101,0.0102,0.0102,0,0,0,0,0,0,-0.0133,-0.0133,-0.0125,-0.0124,-0.0122,-0.0112,-0.0115,-0.0113,-0.0104,-0.0073,-0.0067,-0.01,-0.004,-0.003,0.0007,0.0009,0.001,0.0013,0.0101,0.0101,0.0102,0.0072,0,0,0,0,0,0,-0.0133,-0.0133,-0.013,-0.0125,-0.0122,-0.0104,-0.0115,-0.0112,-0.0103,-0.0103,-0.0065,-0.0058,-0.004,0.0001,0.0011,0.0014,0.0016,0.0101,0.0101,0.0102,0.0073,0.0072,0.0071,0,0,0,0,0,-0.0133,-0.012,-0.013,-0.0129,-0.0121,-0.0104,-0.01,-0.0094,-0.0103,-0.0089,-0.0073,-0.0059,0.0011,0.0005,0.0016,0.002,0.0101,0.0101,0.0102,0.0074,0.0072,0.0071,0,0,0,0,0,0,-0.0107,-0.0118,-0.0128,-0.0117,-0.0111,-0.0103,-0.0089,-0.0092,-0.0069,-0.0068,-0.0048,-0.0039,-0.0006,0.0014,0.0007,0.0048,0.0056,0.0058,0.003,0.0029,0.0028,0.0004,0.0019,0,0,0,0,0,-0.0105,-0.0105,-0.0108,-0.0099,-0.0097,-0.0096,-0.0087,-0.0084,-0.0069,-0.0061,-0.0041,-0.0018,0.0006,0.0022,0.0052,0.0081,0.0071,0.0089,0.0087,0.0086,0.0074,0.0063,0.0059,0.0104,0.0104,0.0104,0,0,-0.0092,-0.0099,-0.0098,-0.0094,-0.0092,-0.009,-0.0091,-0.0075,-0.0077,-0.0052,-0.0039,-0.0013,0.0014,0.004,0.0056,0.0056,0.0067,0.0087,0.0085,0.0074,0.0063,0.0058,0.0054,0.0104,0.0104,0.0104,0,0,-0.0076,-0.0075,-0.0078,-0.0073,-0.0071,-0.0071,-0.0068,-0.0061,-0.0059,-0.0038,-0.003,-0.0011,0.0035,0.0042,0.0053,0.0065,0.0064,0.008,0.0053,0.0042,0.0038,0.0034,0.0004,-0.0003,0.0075,0.0075,0.0075,0,-0.0063,-0.0077,-0.007,-0.0072,-0.0078,-0.0068,-0.0075,-0.0063,-0.0044,-0.005,-0.0033,-0.0001,0.0029,0.0033,0.0036,0.006,0.0047,0.0055,0.0038,0.0034,0.0031,0.0001,-0.0006,0.0074,0.0074,0.0074,0.0074,0,-0.006,-0.0068,-0.0064,-0.0079,-0.0073,-0.0071,-0.0068,-0.0059,-0.0058,-0.0056,-0.0044,-0.001,0.0001,0.0017,0.0033,0.0022,0.0018,0.0039,0.0036,0.0024,-0.0006,-0.0013,0.0072,0.0073,0.0073,0.0073,0,0,-0.0053,-0.0066,-0.0067,-0.0095,-0.0085,-0.0091,-0.0083,-0.0093,-0.0108,-0.0076,-0.0098,-0.0055,-0.0045,-0.0033,-0.0012,-0.0019,-0.0051,-0.0003,-0.0003,-0.0045,-0.0094,-0.0032,-0.0033,-0.0033,-0.0034,-0.0035,-0.011,0,-0.0067,-0.0095,-0.0087,-0.0117,-0.0142,-0.0129,-0.0133,-0.013,-0.0121,-0.0128,-0.0104,-0.0099,-0.0061,-0.0058,-0.0058,-0.0046,-0.0067,-0.0034,-0.0066,-0.0068,-0.0019,-0.0037,0.0002,-0.0055,-0.0117,-0.0118,-0.0119,0,-0.0083,-0.0108,-0.0143,-0.0183,-0.019,-0.0193,-0.0221,-0.0217,-0.0207,-0.0199,-0.0184,-0.0159,-0.0156,-0.0121,-0.013,-0.0111,-0.0111,-0.0107,-0.0109,-0.0046,-0.0017,-0.0048,-0.0064,-0.0034,-0.0129,-0.0128,-0.0127,0,-0.013,-0.0156,-0.0199,-0.0207,-0.023,-0.0243,-0.0249,-0.0242,-0.0251,-0.0241,-0.0242,-0.0229,-0.0222,-0.0215,-0.018,-0.0164,-0.0197,-0.0173,-0.0129,-0.0126,-0.0096,-0.0087,-0.0095,-0.0201,-0.0201,-0.02,-0.02,0,-0.0171,-0.0213,-0.0226,-0.0251,-0.0302,-0.0293,-0.0328,-0.0325,-0.0316,-0.032,-0.0282,-0.0278,-0.0243,-0.0239,-0.0216,-0.0188,-0.0226,-0.0146,-0.0139,-0.0104,-0.0095,-0.0068,-0.0066,-0.0203,-0.0203,-0.0202,-0.0202,0,-0.0236,-0.0239,-0.0297,-0.0322,-0.0328,-0.0366,-0.0376,-0.0389,-0.0375,-0.0374,-0.037,-0.0334,-0.0304,-0.0276,-0.0268,-0.0229,-0.0191,-0.0199,-0.0165,-0.0149,-0.0047,-0.0048,-0.0085,-0.0062,-0.0167,-0.0166,-0.0165,0,-0.0282,-0.0314,-0.0349,-0.037,-0.0382,-0.0419,-0.0427,-0.042,-0.0417,-0.0395,-0.0392,-0.0364,-0.0313,-0.028,-0.0211,-0.0175,-0.0167,-0.013,-0.0076,-0.0043,-0.004,-0.006,-0.0039,-0.0068,-0.0067,-0.0065,-0.0064,0,-0.0371,-0.0373,-0.0408,-0.0438,-0.0455,-0.0478,-0.0481,-0.0483,-0.0452,-0.0429,-0.038,-0.0339,-0.0277,-0.0181,-0.0127,-0.0104,-0.0092,-0.0098,-0.0079,0.0025,0.0014,0.0042,-0.0035,-0.0052,-0.0053,-0.0054,-0.0055,-0.0055,-0.043,-0.0473,-0.0486,-0.0517,-0.0522,-0.0507,-0.0499,-0.0465,-0.0435,-0.0332,-0.0335,-0.0191,-0.0145,-0.0031,-0.0024,0.005,0.0012,0.008,0.0066,0.0034,0.0097,0.0051,0.0069,0.0068,0.0068,0.0068,0.0067,0,-0.0507,-0.0529,-0.0558,-0.0575,-0.0564,-0.0549,-0.0509,-0.0453,-0.0367,-0.0231,-0.0142,0.0049,0.0102,0.0145,0.0204,0.0218,0.0189,0.0208,0.0176,0.0184,0.013,0.018,0.0243,0.0243,0.0243,0.0243,0.0243,0.0243,-0.0548,-0.0596,-0.0602,-0.0598,-0.0586,-0.0533,-0.0487,-0.0367,-0.0236,0.0026,0.0237,0.0365,0.0406,0.0307,0.0323,0.0313,0.03,0.0282,0.0273,0.0236,0.0222,0.0209,0.0258,0.0336,0.0337,0.0339,0.0339,0.034]}],[{"header":{"parameterUnit":"m.s-1","parameterCategory":2,"la1":30.2991,"la2":30.254,"lo1":-89.0895,"lo2":-89.0444,"dy":0.0017,"dx":0.0017,"nx":28,"ny":28,"refTime":"2023-09-28T21:00:00:Z","depth":"2","parameterNumber":2,"parameterNumberName":"U-component_of_CURRENTS"},"data":[0,0,0,0,0,0,0,0,0,0,0,0,0,0,0,0,0,0,0,0,0,0,0,0,0,0,0,0,0,0,0,0,0,0,0,0,0,0,0,0,0,0,0,0,0,0,0,0,0,0,0,0,0,0,0,0,0,0,-0.0526,-0.0525,0,-0.0487,-0.0487,-0.0487,-0.0573,-0.0575,-0.0577,-0.0579,-0.0747,-0.075,-0.0752,0,0,0,0,0,0,0,0,0,0,0,0,0,-0.0781,-0.0775,-0.0526,-0.0525,-0.0524,-0.0487,-0.0487,-0.0487,-0.0572,-0.0575,-0.0577,-0.058,-0.0747,-0.075,-0.0753,0,0,0,0,0,0,0,0,0,0,0,0,0,-0.0705,-0.0774,-0.0527,-0.0557,-0.0559,-0.0487,-0.0487,-0.0487,-0.0572,-0.0575,-0.0578,-0.0581,-0.0746,-0.0749,-0.0753,-0.0713,0,0,-0.0765,-0.0766,0,0,0,0,0,0,0,0,-0.0709,-0.0697,-0.0553,-0.0554,-0.0556,-0.0532,-0.0638,-0.0571,-0.0571,-0.0574,-0.0579,-0.0582,-0.0687,-0.0696,-0.0689,-0.0721,-0.0729,-0.0765,-0.0767,-0.0769,-0.077,0,0,0,0,0,0,0,-0.0714,-0.0699,-0.0518,-0.0552,-0.0553,-0.0608,-0.06,-0.0626,-0.0623,-0.0574,-0.0579,-0.0562,-0.0691,-0.0685,-0.0694,-0.0731,-0.0765,-0.0768,-0.0771,-0.0772,-0.0838,-0.0837,0,0,0,0,0,0,-0.0694,-0.0702,-0.0519,-0.0516,-0.0634,-0.06,-0.0592,-0.0542,-0.0619,-0.0629,-0.0559,-0.0566,-0.0677,-0.069,-0.0701,-0.0757,-0.0769,-0.0772,-0.0775,-0.0838,-0.0838,-0.0837,0,0,0,0,0,0,-0.0699,-0.0677,-0.0521,-0.0606,-0.0589,-0.059,-0.0535,-0.054,-0.0602,-0.0603,-0.0621,-0.0623,-0.068,-0.0695,-0.0737,-0.0761,-0.0774,-0.0778,-0.0839,-0.0838,-0.0838,-0.0808,0,0,0,0,0,0,-0.0706,-0.0678,-0.0675,-0.0603,-0.0583,-0.0525,-0.0531,-0.0536,-0.0578,-0.0589,-0.0662,-0.0677,-0.0684,-0.0731,-0.0741,-0.0767,-0.0781,-0.084,-0.0839,-0.0838,-0.081,-0.0806,-0.0803,0,0,0,0,0,-0.0715,-0.0727,-0.0674,-0.0655,-0.0564,-0.0526,-0.0524,-0.0541,-0.0579,-0.0611,-0.063,-0.0678,-0.0733,-0.0733,-0.0745,-0.0773,-0.084,-0.0839,-0.0838,-0.0811,-0.0807,-0.0803,0,0,0,0,0,0,-0.0858,-0.0732,-0.0676,-0.065,-0.0596,-0.0539,-0.0573,-0.0575,-0.0613,-0.0647,-0.0664,-0.0678,-0.0714,-0.0746,-0.0745,-0.0785,-0.0798,-0.0799,-0.0774,-0.0771,-0.0767,-0.0791,-0.0784,0,0,0,0,0,-0.0866,-0.0823,-0.0716,-0.069,-0.067,-0.0624,-0.0627,-0.0628,-0.0625,-0.0651,-0.068,-0.0709,-0.0703,-0.0744,-0.0746,-0.0783,-0.0808,-0.081,-0.0806,-0.0804,-0.0829,-0.0842,-0.0843,-0.0833,-0.0833,-0.0833,0,0,-0.0908,-0.0831,-0.0809,-0.0715,-0.0676,-0.0637,-0.064,-0.0655,-0.0645,-0.0661,-0.0701,-0.0699,-0.0703,-0.0713,-0.0739,-0.0762,-0.0817,-0.0802,-0.08,-0.0827,-0.0841,-0.0843,-0.0844,-0.0833,-0.0833,-0.0833,0,0,-0.0933,-0.09,-0.0851,-0.0812,-0.0747,-0.0716,-0.0731,-0.0693,-0.0718,-0.0705,-0.0708,-0.0722,-0.0735,-0.0735,-0.0732,-0.0725,-0.0781,-0.0743,-0.0777,-0.0788,-0.079,-0.0792,-0.0817,-0.0822,-0.0766,-0.0765,-0.0765,0,-0.0969,-0.09,-0.0846,-0.0789,-0.0783,-0.0753,-0.0735,-0.0723,-0.071,-0.0738,-0.0726,-0.0723,-0.0732,-0.0741,-0.0722,-0.0722,-0.0746,-0.0788,-0.0786,-0.0788,-0.079,-0.0816,-0.0821,-0.0764,-0.0764,-0.0764,-0.0764,0,-0.0948,-0.0902,-0.0896,-0.0785,-0.0778,-0.0787,-0.0733,-0.0763,-0.0775,-0.0753,-0.0775,-0.0741,-0.0757,-0.0744,-0.0724,-0.0756,-0.0771,-0.0759,-0.0797,-0.079,-0.0817,-0.0823,-0.0762,-0.0762,-0.0763,-0.0763,0,0,-0.0958,-0.0888,-0.0878,-0.0853,-0.0807,-0.0796,-0.08,-0.0798,-0.0834,-0.0801,-0.0832,-0.0782,-0.0798,-0.0795,-0.0786,-0.0793,-0.0803,-0.0795,-0.0797,-0.0827,-0.0851,-0.0787,-0.0787,-0.0796,-0.0797,-0.0797,-0.0861,0,-0.0944,-0.0918,-0.0857,-0.0832,-0.0842,-0.0822,-0.0826,-0.0834,-0.0842,-0.0864,-0.0844,-0.0848,-0.0806,-0.082,-0.0815,-0.0801,-0.082,-0.0789,-0.0851,-0.0854,-0.0802,-0.0792,-0.0645,-0.0683,-0.0867,-0.0868,-0.0869,0,-0.0919,-0.0928,-0.0932,-0.0916,-0.091,-0.0879,-0.0947,-0.0931,-0.0952,-0.096,-0.0967,-0.0948,-0.095,-0.09,-0.0901,-0.0888,-0.0883,-0.0863,-0.0865,-0.0828,-0.0801,-0.0722,-0.0688,-0.0879,-0.0879,-0.0878,-0.0877,0,-0.1006,-0.0964,-0.1002,-0.0995,-0.0963,-0.097,-0.0972,-0.0998,-0.1006,-0.1036,-0.1046,-0.1045,-0.1032,-0.1021,-0.0972,-0.0953,-0.0965,-0.0935,-0.0879,-0.0875,-0.0776,-0.0761,-0.0953,-0.0953,-0.0953,-0.0953,-0.0953,0,-0.1015,-0.1016,-0.1056,-0.1046,-0.11,-0.1067,-0.1071,-0.1094,-0.111,-0.111,-0.1107,-0.1099,-0.1059,-0.1047,-0.1015,-0.0963,-0.1007,-0.0894,-0.0886,-0.0758,-0.0742,-0.0934,-0.0931,-0.0955,-0.0955,-0.0954,-0.0954,0,-0.101,-0.1037,-0.106,-0.1095,-0.1104,-0.1145,-0.1096,-0.1108,-0.1143,-0.1145,-0.1157,-0.1152,-0.1118,-0.1085,-0.1058,-0.1006,-0.0975,-0.0956,-0.0813,-0.0785,-0.0874,-0.0869,-0.0903,-0.0902,-0.09,-0.0899,-0.0898,0,-0.0977,-0.1011,-0.1094,-0.1103,-0.1081,-0.1111,-0.1113,-0.1136,-0.1152,-0.1155,-0.1179,-0.1156,-0.1067,-0.1014,-0.0941,-0.0888,-0.095,-0.0766,-0.0686,-0.088,-0.0869,-0.0866,-0.0863,-0.0549,-0.0545,-0.0542,-0.0539,0,-0.09,-0.0956,-0.0978,-0.1062,-0.1069,-0.106,-0.1088,-0.1103,-0.1118,-0.1103,-0.1062,-0.098,-0.092,-0.075,-0.0718,-0.0684,-0.0755,-0.0699,-0.0947,-0.0574,-0.0547,-0.0536,-0.0544,-0.0511,-0.0514,-0.0516,-0.0518,-0.0519,-0.0824,-0.0862,-0.0919,-0.0964,-0.0998,-0.0991,-0.0939,-0.0954,-0.0916,-0.0868,-0.088,-0.0709,-0.0673,-0.0485,-0.0468,-0.049,-0.0547,-0.0508,-0.0517,-0.053,-0.0467,-0.0438,-0.0372,-0.0374,-0.0375,-0.0377,-0.0378,0,-0.0739,-0.0771,-0.0796,-0.0835,-0.084,-0.0892,-0.0892,-0.0815,-0.0718,-0.0682,-0.0564,-0.0362,-0.0226,-0.0259,-0.0197,-0.0195,-0.0204,-0.0221,-0.02,-0.0225,-0.0248,-0.0172,0.0002,0.0002,0.0002,0.0002,0,0,-0.0694,-0.0661,-0.0685,-0.0653,-0.0689,-0.0635,-0.0612,-0.0531,-0.0481,-0.03,-0.0198,-0.0143,-0.0156,-0.004,-0.0032,-0.0001,-0.0127,-0.0004,-0.0292,-0.0286,-0.0309,-0.038,-0.0286,0,0,0,0,0]},{"header":{"parameterUnit":"m.s-1","parameterCategory":2,"la1":30.2991,"la2":30.254,"lo1":-89.0895,"lo2":-89.0444,"dy":0.0017,"dx":0.0017,"nx":28,"ny":28,"refTime":"2023-09-28T21:00:00:Z","depth":"2","parameterNumber":3,"parameterNumberName":"V-component_of_CURRENTS"},"data":[0,0,0,0,0,0,0,0,0,0,0,0,0,0,0,0,0,0,0,0,0,0,0,0,0,0,0,0,0,0,0,0,0,0,0,0,0,0,0,0,0,0,0,0,0,0,0,0,0,0,0,0,0,0,0,0,0,0,-0.0355,-0.0355,0,-0.0322,-0.0321,-0.032,-0.0291,-0.0291,-0.0291,-0.0291,-0.0172,-0.0168,-0.0165,0,0,0,0,0,0,0,0,0,0,0,0,0,-0.031,-0.0311,-0.0355,-0.0355,-0.0355,-0.0322,-0.0321,-0.032,-0.0291,-0.0291,-0.0291,-0.0291,-0.0173,-0.0169,-0.0165,0,0,0,0,0,0,0,0,0,0,0,0,0,-0.0305,-0.0312,-0.0355,-0.034,-0.0338,-0.0322,-0.0321,-0.032,-0.0291,-0.0291,-0.0291,-0.0291,-0.0174,-0.0169,-0.0164,-0.0134,0,0,-0.015,-0.0148,0,0,0,0,0,0,0,0,-0.0305,-0.0306,-0.0342,-0.0341,-0.0339,-0.0314,-0.0261,-0.0255,-0.0291,-0.0305,-0.0291,-0.0291,-0.0214,-0.0206,-0.0195,-0.0128,-0.0123,-0.0149,-0.0146,-0.0144,-0.0143,0,0,0,0,0,0,0,-0.0306,-0.0307,-0.0338,-0.0342,-0.034,-0.0305,-0.0305,-0.0259,-0.0255,-0.0303,-0.0302,-0.0305,-0.0212,-0.02,-0.0192,-0.0121,-0.0149,-0.0145,-0.0142,-0.014,-0.0033,-0.0033,0,0,0,0,0,0,-0.0323,-0.0308,-0.0339,-0.0337,-0.0326,-0.0307,-0.0306,-0.0319,-0.0257,-0.025,-0.0305,-0.0304,-0.0208,-0.0197,-0.0187,-0.0133,-0.0144,-0.014,-0.0137,-0.0033,-0.0033,-0.0033,0,0,0,0,0,0,-0.0322,-0.0326,-0.0341,-0.0324,-0.0324,-0.0309,-0.0322,-0.0318,-0.0299,-0.026,-0.025,-0.029,-0.0207,-0.0194,-0.0157,-0.0129,-0.0138,-0.0133,-0.0032,-0.0033,-0.0033,-0.0033,0,0,0,0,0,0,-0.0321,-0.0326,-0.0327,-0.0326,-0.0326,-0.0316,-0.0322,-0.0318,-0.0303,-0.03,-0.0243,-0.0233,-0.0206,-0.0164,-0.0152,-0.0122,-0.013,-0.0032,-0.0033,-0.0033,-0.0033,-0.0033,-0.0033,0,0,0,0,0,-0.032,-0.0304,-0.0327,-0.033,-0.0332,-0.0316,-0.0311,-0.0297,-0.0302,-0.0282,-0.0266,-0.0234,-0.0156,-0.016,-0.0146,-0.0114,-0.0032,-0.0032,-0.0033,-0.0033,-0.0033,-0.0033,0,0,0,0,0,0,-0.0272,-0.0301,-0.0325,-0.0318,-0.032,-0.0312,-0.029,-0.0293,-0.0265,-0.0263,-0.0232,-0.022,-0.018,-0.0153,-0.0159,-0.0088,-0.0089,-0.0086,-0.0094,-0.0094,-0.0094,-0.0075,-0.0126,0,0,0,0,0,-0.0272,-0.0276,-0.0297,-0.0293,-0.0295,-0.0298,-0.0287,-0.0286,-0.027,-0.0257,-0.0226,-0.0196,-0.0169,-0.0138,-0.0109,-0.006,-0.0051,-0.0033,-0.0034,-0.0034,-0.0011,0.001,0.0015,-0.0033,-0.0033,-0.0033,0,0,-0.0253,-0.0271,-0.0272,-0.0285,-0.0286,-0.0274,-0.0289,-0.0272,-0.0253,-0.0247,-0.02,-0.0194,-0.0162,-0.012,-0.0097,-0.0089,-0.0023,-0.0034,-0.0034,-0.001,0.0011,0.0016,0.002,-0.0033,-0.0033,-0.0033,0,0,-0.0226,-0.0238,-0.0241,-0.0237,-0.0247,-0.0243,-0.0241,-0.0236,-0.0221,-0.0194,-0.0193,-0.0173,-0.012,-0.0093,-0.0074,-0.0053,-0.0034,-0.0048,-0.0012,0.0007,0.0012,0.0016,0.0001,0.0004,-0.0035,-0.0035,-0.0035,0,-0.0209,-0.0221,-0.0232,-0.0228,-0.0218,-0.0231,-0.0218,-0.0199,-0.018,-0.0164,-0.0176,-0.0124,-0.0102,-0.005,-0.0053,-0.0047,-0.0051,-0.0014,0.0009,0.0013,0.0018,0.0002,0.0005,-0.0035,-0.0035,-0.0035,-0.0035,0,-0.019,-0.0192,-0.0182,-0.0194,-0.0174,-0.0159,-0.015,-0.0127,-0.0124,-0.0114,-0.0076,-0.0064,-0.0032,-0.0027,-0.0031,0.0014,-0.0007,-0.0005,0.0011,0.0023,0.0004,0.0008,-0.0035,-0.0035,-0.0035,-0.0035,0,0,-0.0183,-0.0178,-0.0175,-0.0177,-0.0155,-0.0142,-0.0098,-0.007,-0.0044,-0.0027,0.0008,0.0035,0.0027,0.0047,0.0044,0.0066,0.0071,0.0045,0.0046,0.0034,0.0086,0.0085,0.0088,0.0073,0.0074,0.0075,0.0048,0,-0.0177,-0.0177,-0.0155,-0.0127,-0.0129,-0.0097,-0.0054,-0.0022,0.0001,0.0037,0.0054,0.0078,0.0062,0.0062,0.0084,0.0074,0.0086,0.0077,0.0075,0.0074,0.0077,0.0095,0.0099,0.0078,0.0052,0.0052,0.0053,0,-0.0171,-0.0179,-0.0167,-0.0123,-0.0115,-0.0085,-0.0025,0.0014,0.007,0.0086,0.012,0.0126,0.0156,0.0131,0.0147,0.0137,0.0117,0.0108,0.0107,0.0119,0.0083,0.0069,0.0085,0.0059,0.0058,0.0058,0.0058,0,-0.0195,-0.017,-0.0166,-0.0153,-0.0111,-0.0082,-0.0045,0.0017,0.0052,0.0108,0.012,0.017,0.0162,0.018,0.0149,0.0148,0.0152,0.0149,0.0131,0.0129,0.0143,0.0141,0.0169,0.0169,0.0169,0.0169,0.0169,0,-0.0199,-0.0193,-0.0184,-0.0185,-0.0168,-0.0108,-0.0061,-0.0023,0.005,0.0081,0.0129,0.014,0.0172,0.0172,0.0165,0.0153,0.0162,0.015,0.0138,0.0137,0.0135,0.0137,0.0133,0.0168,0.0169,0.0169,0.0169,0,-0.0233,-0.0222,-0.0231,-0.0202,-0.0191,-0.0183,-0.0101,-0.0068,0.0005,0.0044,0.0056,0.0106,0.0109,0.0134,0.014,0.0151,0.0157,0.0144,0.0124,0.0112,0.0114,0.0111,0.0147,0.0147,0.0147,0.0147,0.0147,0,-0.0258,-0.0273,-0.0276,-0.0287,-0.0279,-0.0247,-0.0226,-0.0127,-0.0085,0.0007,0.001,0.0042,0.0061,0.0084,0.0112,0.0131,0.0122,0.0138,0.0164,0.0136,0.0119,0.0116,0.0112,0.0157,0.0157,0.0157,0.0157,0,-0.032,-0.0324,-0.0333,-0.0369,-0.0366,-0.0342,-0.0294,-0.0261,-0.0145,-0.0085,-0.0031,0.0005,0.0032,0.0074,0.0107,0.0115,0.0151,0.0142,0.013,0.0168,0.0146,0.0129,0.0125,0.0158,0.0158,0.0158,0.0158,0.0158,-0.0375,-0.0406,-0.0421,-0.0445,-0.0442,-0.0426,-0.0389,-0.0318,-0.0237,-0.011,-0.0079,0.002,0.0045,0.0129,0.0117,0.0128,0.014,0.016,0.016,0.0159,0.0172,0.0152,0.0165,0.0165,0.0165,0.0165,0.0165,0,-0.0444,-0.046,-0.0491,-0.0506,-0.0505,-0.0483,-0.0421,-0.0353,-0.0259,-0.0133,-0.0034,0.0049,0.0109,0.013,0.0151,0.0156,0.0152,0.0153,0.0151,0.0151,0.0151,0.0163,0.0153,0.0153,0.0153,0.0152,0,0,-0.0481,-0.0525,-0.0536,-0.0556,-0.0551,-0.0519,-0.0478,-0.0377,-0.0252,-0.0102,0.0022,0.0139,0.0167,0.0179,0.0163,0.0161,0.0156,0.0159,0.0173,0.0172,0.0172,0.0163,0.0183,0,0,0,0,0]}],[{"header":{"parameterUnit":"m.s-1","parameterCategory":2,"la1":30.2991,"la2":30.254,"lo1":-89.0895,"lo2":-89.0444,"dy":0.0017,"dx":0.0017,"nx":28,"ny":28,"refTime":"2023-09-28T21:00:00:Z","depth":"4","parameterNumber":2,"parameterNumberName":"U-component_of_CURRENTS"},"data":[0,0,0,0,0,0,0,0,0,0,0,0,0,0,0,0,0,0,0,0,0,0,0,0,0,0,0,0,0,0,0,0,0,0,0,0,0,0,0,0,0,0,0,0,0,0,0,0,0,0,0,0,0,0,0,0,0,0,0.0021,0.0021,0,-0.0021,-0.0021,-0.0021,-0.0043,-0.0043,-0.0043,-0.0044,-0.0062,-0.0062,-0.0062,0,0,0,0,0,0,0,0,0,0,0,0,0,0.008,0.0079,0.0021,0.0021,0.002,-0.0021,-0.0021,-0.0021,-0.0043,-0.0043,-0.0043,-0.0044,-0.0061,-0.0062,-0.0062,0,0,0,0,0,0,0,0,0,0,0,0,0,0.005,0.0079,0.0022,0.0003,0.0001,-0.002,-0.0021,-0.0021,-0.0043,-0.0043,-0.0043,-0.0044,-0.0061,-0.0062,-0.0062,-0.006,0,0,-0.0064,-0.0064,0,0,0,0,0,0,0,0,0.0052,0.0048,0.0007,0.0004,0.0002,-0.0028,-0.0007,-0.0034,-0.0043,-0.0024,-0.0044,-0.0044,-0.0049,-0.0051,-0.0056,-0.0061,-0.0061,-0.0064,-0.0064,-0.0064,-0.0064,0,0,0,0,0,0,0,0.0054,0.0049,0.0007,0.0006,0.0003,-0.0004,-0.0008,-0.0012,-0.0033,-0.0026,-0.0028,-0.0035,-0.005,-0.0055,-0.0056,-0.0062,-0.0064,-0.0064,-0.0064,-0.0065,-0.0072,-0.0072,0,0,0,0,0,0,0.0056,0.0051,0.0008,0.0005,0.0025,-0.0005,-0.001,-0.0017,-0.0034,-0.0037,-0.0035,-0.0036,-0.0054,-0.0056,-0.0057,-0.0065,-0.0064,-0.0065,-0.0065,-0.0072,-0.0072,-0.0072,0,0,0,0,0,0,0.0057,0.0052,0.001,0.0026,0.002,-0.0006,-0.0014,-0.0018,-0.0018,-0.0041,-0.0044,-0.0031,-0.0055,-0.0056,-0.0057,-0.0066,-0.0065,-0.0065,-0.0072,-0.0072,-0.0072,-0.0075,0,0,0,0,0,0,0.0059,0.0053,0.0057,0.0026,0.0019,0.0004,-0.0014,-0.0018,-0.0024,-0.0025,-0.0038,-0.0041,-0.0055,-0.0056,-0.0057,-0.0066,-0.0066,-0.0072,-0.0072,-0.0072,-0.0075,-0.0075,-0.0075,0,0,0,0,0,0.0061,0.0059,0.0057,0.0052,0.0022,0.0004,0.0,-0.0018,-0.0023,-0.0019,-0.0031,-0.004,-0.0056,-0.0056,-0.0058,-0.0067,-0.0072,-0.0072,-0.0072,-0.0075,-0.0075,-0.0075,0,0,0,0,0,0,0.0083,0.0056,0.0053,0.0043,0.0031,-0.0,-0.0003,-0.0011,-0.0017,-0.0019,-0.0035,-0.0038,-0.0042,-0.0049,-0.0048,-0.0068,-0.0067,-0.0067,-0.0069,-0.0069,-0.0069,-0.0094,-0.0066,0,0,0,0,0,0.0092,0.0087,0.0061,0.0057,0.0049,0.0029,0.0021,0.0009,-0.0006,-0.0009,-0.0019,-0.0031,-0.0043,-0.0051,-0.0057,-0.0065,-0.007,-0.0072,-0.0072,-0.0072,-0.0093,-0.01,-0.0103,-0.0071,-0.0071,-0.0071,0,0,0.0099,0.0084,0.0082,0.0063,0.0049,0.0036,0.0024,0.0012,-0.0001,-0.0009,-0.002,-0.0025,-0.0042,-0.0055,-0.0058,-0.0063,-0.0079,-0.0072,-0.0072,-0.0094,-0.01,-0.0103,-0.0106,-0.0071,-0.0071,-0.0071,0,0,0.0104,0.0098,0.0093,0.0081,0.0063,0.0049,0.0049,0.0026,0.0014,0.0005,-0.0008,-0.0017,-0.0031,-0.0052,-0.0064,-0.0065,-0.0073,-0.0065,-0.0094,-0.0099,-0.0102,-0.0105,-0.0096,-0.0098,-0.0071,-0.0071,-0.0071,0,0.0116,0.0105,0.0091,0.0079,0.0069,0.0056,0.0046,0.003,0.0012,-0.0006,0.0002,-0.0034,-0.0035,-0.0073,-0.0078,-0.0067,-0.0069,-0.0092,-0.01,-0.0103,-0.0106,-0.0097,-0.0099,-0.0071,-0.0071,-0.0071,-0.0071,0,0.0111,0.0105,0.01,0.0082,0.007,0.0063,0.0035,0.0024,0.0014,-0.001,-0.0037,-0.0044,-0.0078,-0.007,-0.0079,-0.0107,-0.0099,-0.0093,-0.0102,-0.011,-0.0098,-0.0101,-0.0072,-0.0072,-0.0072,-0.0071,0,0,0.0133,0.0104,0.0106,0.0099,0.0073,0.0063,0.0035,0.0003,-0.0028,-0.004,-0.0079,-0.0097,-0.0115,-0.013,-0.0136,-0.0141,-0.0146,-0.0134,-0.0134,-0.013,-0.0153,-0.0161,-0.0164,-0.0144,-0.0145,-0.0145,-0.013,0,0.014,0.0131,0.0106,0.0096,0.0088,0.0057,0.0027,-0.0008,-0.0039,-0.0078,-0.0103,-0.0137,-0.0136,-0.0154,-0.0163,-0.0147,-0.0157,-0.0151,-0.0145,-0.0144,-0.0154,-0.0169,-0.0148,-0.0132,-0.0132,-0.0133,-0.0133,0,0.0146,0.014,0.014,0.0099,0.0089,0.0074,0.0024,-0.0015,-0.0085,-0.0116,-0.0168,-0.0188,-0.0216,-0.0204,-0.0207,-0.0205,-0.0196,-0.0176,-0.0175,-0.0192,-0.0158,-0.0128,-0.0137,-0.0137,-0.0137,-0.0136,-0.0136,0,0.0188,0.016,0.0169,0.016,0.0113,0.0092,0.0048,-0.0023,-0.007,-0.0152,-0.0182,-0.0228,-0.0237,-0.0242,-0.0231,-0.0217,-0.0222,-0.019,-0.0191,-0.0189,-0.0185,-0.0182,-0.0207,-0.0207,-0.0207,-0.0207,-0.0207,0,0.0202,0.0206,0.0189,0.0193,0.0174,0.0112,0.0053,0.0003,-0.0089,-0.0143,-0.0207,-0.0241,-0.0247,-0.0256,-0.0247,-0.0237,-0.024,-0.021,-0.0197,-0.0182,-0.0179,-0.0185,-0.0182,-0.0207,-0.0207,-0.0207,-0.0207,0,0.0232,0.0234,0.024,0.0209,0.0197,0.0172,0.0061,-0.0006,-0.0081,-0.015,-0.0175,-0.0238,-0.0256,-0.0268,-0.0259,-0.0244,-0.0238,-0.024,-0.023,-0.0213,-0.0189,-0.0187,-0.0215,-0.0216,-0.0216,-0.0216,-0.0216,0,0.0238,0.0254,0.0268,0.0242,0.0222,0.0161,0.0099,0.0013,-0.0043,-0.0144,-0.0154,-0.021,-0.0248,-0.0249,-0.0262,-0.0264,-0.0262,-0.0247,-0.0219,-0.0212,-0.0195,-0.0192,-0.019,-0.0217,-0.0217,-0.0217,-0.0217,0,0.0245,0.0276,0.0283,0.026,0.0221,0.0133,0.0061,0.0049,-0.0051,-0.0093,-0.0149,-0.0196,-0.0222,-0.024,-0.0264,-0.026,-0.0247,-0.025,-0.0248,-0.0222,-0.0214,-0.0197,-0.0194,-0.0218,-0.0218,-0.0218,-0.0218,0,0.0255,0.0271,0.0299,0.0262,0.0205,0.0118,0.0073,0.0008,-0.0032,-0.0089,-0.01,-0.018,-0.0211,-0.024,-0.0258,-0.0268,-0.0244,-0.021,-0.021,-0.0209,-0.0219,-0.0209,-0.0214,0,0,0,0,0,0.0254,0.0277,0.0257,0.0241,0.0169,0.0139,0.005,0.0003,-0.0004,-0.0034,-0.0071,-0.0112,-0.0175,-0.021,-0.0218,-0.0245,-0.024,-0.0251,-0.0198,-0.0225,-0.0223,-0.0239,0,0,0,0,0,0,0.0255,0.028,0.029,0.0227,0.019,0.0117,0.0064,0.003,0.0023,0.0003,-0.0033,-0.0066,-0.0127,-0.0153,-0.0197,-0.0206,-0.0164,-0.0284,-0.0283,-0.0225,-0.0224,-0.0223,-0.0239,0,0,0,0,0]},{"header":{"parameterUnit":"m.s-1","parameterCategory":2,"la1":30.2991,"la2":30.254,"lo1":-89.0895,"lo2":-89.0444,"dy":0.0017,"dx":0.0017,"nx":28,"ny":28,"refTime":"2023-09-28T21:00:00:Z","depth":"4","parameterNumber":3,"parameterNumberName":"V-component_of_CURRENTS"},"data":[0,0,0,0,0,0,0,0,0,0,0,0,0,0,0,0,0,0,0,0,0,0,0,0,0,0,0,0,0,0,0,0,0,0,0,0,0,0,0,0,0,0,0,0,0,0,0,0,0,0,0,0,0,0,0,0,0,0,-0.0024,-0.0025,0,-0.0055,-0.0056,-0.0056,-0.0086,-0.0086,-0.0086,-0.0086,-0.0163,-0.0165,-0.0167,0,0,0,0,0,0,0,0,0,0,0,0,0,0.0001,0.0001,-0.0024,-0.0025,-0.0025,-0.0055,-0.0056,-0.0057,-0.0086,-0.0086,-0.0086,-0.0086,-0.0162,-0.0165,-0.0167,0,0,0,0,0,0,0,0,0,0,0,0,0,-0.0021,0.0,-0.0024,-0.0041,-0.0042,-0.0055,-0.0056,-0.0057,-0.0086,-0.0086,-0.0086,-0.0086,-0.0162,-0.0164,-0.0167,-0.0182,0,0,-0.0176,-0.0178,0,0,0,0,0,0,0,0,-0.0019,-0.0022,-0.0038,-0.004,-0.0041,-0.0064,-0.0075,-0.01,-0.0086,-0.0072,-0.0086,-0.0086,-0.0132,-0.0138,-0.0147,-0.0186,-0.0189,-0.0176,-0.0178,-0.018,-0.018,0,0,0,0,0,0,0,-0.0018,-0.0021,-0.004,-0.0038,-0.004,-0.0049,-0.0053,-0.008,-0.0104,-0.0073,-0.0075,-0.0074,-0.0134,-0.0144,-0.0149,-0.019,-0.0176,-0.0179,-0.0181,-0.0182,-0.0276,-0.0277,0,0,0,0,0,0,-0.0008,-0.0019,-0.0039,-0.004,-0.0027,-0.0049,-0.0053,-0.0059,-0.0103,-0.0109,-0.0073,-0.0075,-0.0139,-0.0145,-0.0151,-0.0204,-0.018,-0.0182,-0.0184,-0.0275,-0.0276,-0.0277,0,0,0,0,0,0,-0.0007,-0.0009,-0.0037,-0.0028,-0.0032,-0.0049,-0.0056,-0.006,-0.0077,-0.0102,-0.0109,-0.0087,-0.0139,-0.0147,-0.0189,-0.0206,-0.0184,-0.0186,-0.0274,-0.0276,-0.0277,-0.0289,0,0,0,0,0,0,-0.0006,-0.0009,-0.0019,-0.0027,-0.0032,-0.0058,-0.0055,-0.006,-0.0074,-0.0076,-0.0116,-0.0122,-0.014,-0.0184,-0.0192,-0.021,-0.0189,-0.0273,-0.0275,-0.0276,-0.0288,-0.0291,-0.0293,0,0,0,0,0,-0.0006,-0.003,-0.0019,-0.0022,-0.0041,-0.0058,-0.0062,-0.0076,-0.0074,-0.0091,-0.0115,-0.0122,-0.0198,-0.0188,-0.0196,-0.0215,-0.0273,-0.0274,-0.0276,-0.0287,-0.029,-0.0293,0,0,0,0,0,0,-0.004,-0.0034,-0.0024,-0.0048,-0.0051,-0.0062,-0.0082,-0.0079,-0.011,-0.0118,-0.0135,-0.0145,-0.0187,-0.0199,-0.0186,-0.0246,-0.0235,-0.0238,-0.024,-0.0244,-0.0246,-0.0231,-0.0191,0,0,0,0,0,-0.0044,-0.0052,-0.0047,-0.0067,-0.0069,-0.0071,-0.0081,-0.0087,-0.0107,-0.0121,-0.0145,-0.0172,-0.0199,-0.0219,-0.0247,-0.0282,-0.025,-0.0298,-0.0301,-0.0303,-0.0296,-0.0252,-0.0249,-0.0282,-0.0282,-0.0282,0,0,-0.0059,-0.0059,-0.0063,-0.0072,-0.0078,-0.0099,-0.008,-0.0101,-0.0125,-0.0125,-0.0177,-0.0186,-0.021,-0.025,-0.027,-0.0264,-0.0277,-0.0305,-0.0307,-0.0299,-0.0253,-0.025,-0.0247,-0.0284,-0.0283,-0.0283,0,0,-0.0092,-0.0096,-0.0107,-0.0116,-0.0122,-0.0129,-0.0133,-0.0146,-0.0159,-0.0194,-0.02,-0.0214,-0.0266,-0.0277,-0.029,-0.0322,-0.0292,-0.0336,-0.034,-0.0298,-0.0294,-0.029,-0.0241,-0.0232,-0.0338,-0.0338,-0.0338,0,-0.0111,-0.0128,-0.0117,-0.0136,-0.0154,-0.0143,-0.0171,-0.0185,-0.0211,-0.0215,-0.0218,-0.0251,-0.0276,-0.0297,-0.0313,-0.0327,-0.0291,-0.0326,-0.0298,-0.0294,-0.029,-0.024,-0.0231,-0.0339,-0.0338,-0.0338,-0.0338,0,-0.0142,-0.0167,-0.0183,-0.02,-0.0218,-0.0247,-0.0254,-0.0272,-0.0278,-0.0276,-0.0291,-0.0302,-0.031,-0.0325,-0.0335,-0.0324,-0.0303,-0.0303,-0.0284,-0.0286,-0.0235,-0.0225,-0.034,-0.0339,-0.0339,-0.0339,0,0,-0.016,-0.0195,-0.0203,-0.0223,-0.0258,-0.0275,-0.0314,-0.0331,-0.0335,-0.0344,-0.0335,-0.037,-0.0337,-0.0348,-0.0344,-0.0315,-0.0263,-0.0299,-0.0296,-0.0239,-0.0153,-0.017,-0.016,-0.025,-0.0248,-0.0247,-0.0127,0,-0.019,-0.023,-0.025,-0.031,-0.0335,-0.0351,-0.0381,-0.0393,-0.0394,-0.0383,-0.0357,-0.0355,-0.0357,-0.0346,-0.0316,-0.0273,-0.0237,-0.0294,-0.0169,-0.0165,-0.0171,-0.015,-0.0243,-0.0119,-0.0116,-0.0115,-0.0114,0,-0.0212,-0.0239,-0.0292,-0.0348,-0.0361,-0.0403,-0.0432,-0.0455,-0.0435,-0.0422,-0.0391,-0.0359,-0.0317,-0.0313,-0.0219,-0.025,-0.0205,-0.0168,-0.0162,-0.0165,-0.0164,-0.0118,-0.0095,-0.0096,-0.0098,-0.0099,-0.01,0,-0.0206,-0.0275,-0.0319,-0.0341,-0.0397,-0.0431,-0.0461,-0.0465,-0.0468,-0.0431,-0.0399,-0.0346,-0.029,-0.0232,-0.0157,-0.0179,-0.0036,-0.0056,-0.0026,-0.0026,-0.0039,-0.0044,0.0015,0.0014,0.0014,0.0014,0.0014,0,-0.0224,-0.0268,-0.0324,-0.0349,-0.0396,-0.0438,-0.0473,-0.0479,-0.0473,-0.0447,-0.0407,-0.0345,-0.0262,-0.0173,-0.0129,-0.0034,-0.0007,-0.0013,0.0006,-0.0049,-0.0057,-0.0031,-0.0038,0.0018,0.0017,0.0017,0.0016,0,-0.021,-0.0251,-0.0302,-0.0369,-0.0393,-0.0423,-0.0482,-0.049,-0.0483,-0.0439,-0.0418,-0.0317,-0.0197,-0.0122,-0.0001,0.0016,0.009,0.0113,0.0069,0.0081,0.0066,0.0056,0.016,0.0161,0.0161,0.0162,0.0162,0,-0.0204,-0.0227,-0.0294,-0.0324,-0.0367,-0.042,-0.0445,-0.0479,-0.0472,-0.041,-0.0363,-0.0249,-0.0176,0.001,0.006,0.0151,0.0143,0.018,0.0095,0.0074,0.0082,0.0072,0.0063,0.0162,0.0163,0.0163,0.0163,0,-0.019,-0.0214,-0.0242,-0.0288,-0.0338,-0.0383,-0.042,-0.0412,-0.0418,-0.0412,-0.0287,-0.0209,-0.0067,0.0039,0.0112,0.0165,0.015,0.0183,0.0181,0.0103,0.0077,0.0083,0.0073,0.0164,0.0164,0.0164,0.0164,0,-0.0165,-0.0172,-0.0203,-0.0243,-0.0306,-0.0338,-0.0363,-0.0351,-0.0346,-0.0291,-0.0236,-0.012,-0.0048,0.005,0.0118,0.0166,0.0152,0.014,0.0141,0.014,0.0072,0.0032,0.0136,0,0,0,0,0,-0.0135,-0.0132,-0.0162,-0.0209,-0.0276,-0.0297,-0.034,-0.0358,-0.0352,-0.0261,-0.026,-0.0137,-0.0025,0.0046,0.0094,0.0095,0.0142,0.0147,0.0124,0.0171,0.017,0.0088,0,0,0,0,0,0,-0.0114,-0.0126,-0.0133,-0.0179,-0.02,-0.0257,-0.0274,-0.0272,-0.0221,-0.0205,-0.0125,-0.0127,0.0002,-0.0028,0.0109,0.0119,0.0105,0.0194,0.0194,0.0172,0.0171,0.017,0.0085,0,0,0,0,0]}]]